Location: El Bakhil
(32.7726°N, 5.5387°W)
Time: 19:04:11
(UTC+00:00)

SPROUT - Visible Passes

Search period start: 23 July 2021 00:00
Search period end: 02 August 2021 00:00
Orbit: 595 x 609 km, 97.9° (Epoch: 23 July)

Date Brightness Start Highest point End Pass type
(mag) Time Alt. Az. Time Alt. Az. Time Alt. Az.
23 Jul ? 01:07:26 13° NNW 01:07:26 13° NNW 01:07:57 10° NNW visible
24 Jul ? 01:19:30 11° NNW 01:19:30 11° NNW 01:19:44 10° NNW visible
26 Jul ? 00:06:49 10° NNE 00:06:49 10° NNE 00:06:49 10° NNE visible
27 Jul ? 00:18:52 11° NNE 00:18:52 11° NNE 00:19:07 10° NNE visible
28 Jul ? 00:30:55 12° N 00:30:55 12° N 00:31:15 10° N visible
29 Jul ? 00:42:59 12° N 00:42:59 12° N 00:43:17 10° N visible
30 Jul ? 00:55:02 11° N 00:55:02 11° N 00:55:14 10° N visible
31 Jul ? 01:07:06 10° NNW 01:07:06 10° NNW 01:07:06 10° NNW visible
